KC2NJV-10 Weather Reports


Display with metric or nautical units.
time (UTC)temp
F
wind
direction
speed
MPH
gust
MPH
rain 1hr
in
rain 24hr
in
rain mn
in
humidity
%
barometer
mb
20260503045403 51 360 7.0 0.0 0.00 0.00 0.00 50 298.5
20260503045247 51 360 7.0 0.0 0.00 0.00 0.00 50 298.5
20260503043749 51 360 7.0 0.0 0.00 0.00 0.00 50 298.5
20260503042248 51 360 7.0 0.0 0.00 0.00 0.00 50 298.5
20260503040847 51 360 7.0 0.0 0.00 0.00 0.00 50 298.5
20260503040748 51 360 7.0 0.0 0.00 0.00 0.00 50 298.5
20260503035247 51 10 9.0 0.0 0.00 0.00 0.00 58 298.5
20260503033844 51 10 9.0 0.0 0.00 0.00 0.00 58 298.5
20260503033747 51 10 9.0 0.0 0.00 0.00 0.00 58 298.5
20260503032247 51 10 9.0 0.0 0.00 0.00 0.00 58 298.5
20260503025415 51 330 3.0 0.0 0.00 0.00 0.00 71 298.5
20260503025249 51 330 3.0 0.0 0.00 0.00 0.00 71 298.5
20260503022248 51 330 3.0 0.0 0.00 0.00 0.00 71 298.5
20260503020748 51 330 3.0 0.0 0.00 0.00 0.00 71 298.5
20260503015248 51 180 6.0 0.0 0.00 0.00 0.00 71 298.4
20260503013748 51 180 6.0 0.0 0.00 0.00 0.00 71 298.4
20260503012247 51 180 6.0 0.0 0.00 0.00 0.00 71 298.4
20260503010831 51 180 6.0 0.0 0.00 0.00 0.00 71 298.4
20260503010748 51 180 6.0 0.0 0.00 0.00 0.00 71 298.4
20260503005248 53 190 3.0 0.0 0.00 0.00 0.00 69 298.3
20260503003748 53 190 3.0 0.0 0.00 0.00 0.00 69 298.3
20260503002248 53 190 3.0 0.0 0.00 0.00 0.00 69 298.3
20260503000748 53 190 3.0 0.0 0.00 0.00 0.00 69 298.3
20260502235249 57 110 6.0 0.0 0.00 0.00 0.00 59 298.2
20260502233749 57 110 6.0 0.0 0.00 0.00 0.00 59 298.2
20260502232328 57 110 6.0 0.0 0.00 0.00 0.00 59 298.2
20260502232248 57 110 6.0 0.0 0.00 0.00 0.00 59 298.2
20260502230748 57 110 6.0 0.0 0.00 0.00 0.00 59 298.2
20260502225249 57 360 6.0 0.0 0.00 0.00 0.00 51 298.2
20260502223749 57 360 6.0 0.0 0.00 0.00 0.00 51 298.2
20260502220748 57 360 6.0 0.0 0.00 0.00 0.00 51 298.2
20260502215248 57 30 9.0 0.0 0.00 0.00 0.00 57 298.1
20260502213747 57 30 9.0 0.0 0.00 0.00 0.00 57 298.1
20260502212248 57 30 9.0 0.0 0.00 0.00 0.00 57 298.1
20260502210748 57 30 9.0 0.0 0.00 0.00 0.00 57 298.1
20260502205248 57 0 0.0 0.0 0.00 0.00 0.00 49 298.3
20260502203748 57 0 0.0 0.0 0.00 0.00 0.00 49 298.3
20260502202248 57 0 0.0 0.0 0.00 0.00 0.00 49 298.3
20260502200748 57 0 0.0 0.0 0.00 0.00 0.00 49 298.3
20260502195247 57 220 6.0 0.0 0.00 0.00 0.00 55 298.5
20260502193749 57 220 6.0 0.0 0.00 0.00 0.00 55 298.5
20260502192247 57 220 6.0 0.0 0.00 0.00 0.00 55 298.5
20260502190748 57 220 6.0 0.0 0.00 0.00 0.00 55 298.5
20260502185247 57 180 7.0 0.0 0.00 0.00 0.00 67 298.6
20260502183750 57 180 7.0 0.0 0.00 0.00 0.00 67 298.6
20260502182248 57 180 7.0 0.0 0.00 0.00 0.00 67 298.6
20260502180748 55 190 9.0 0.0 0.00 0.00 0.00 69 298.6
20260502163749 55 100 5.0 0.0 0.00 0.00 0.00 66 298.8
20260502162247 55 100 5.0 0.0 0.00 0.00 0.00 66 298.8
20260502160747 55 100 5.0 0.0 0.00 0.00 0.00 66 298.8
20260502152249 53 0 0.0 0.0 0.00 0.00 0.00 74 298.8
20260502150747 53 0 0.0 0.0 0.00 0.00 0.00 74 298.8
20260502130747 51 40 3.0 0.0 0.00 0.00 0.00 80 299.0
20260502123748 51 250 5.0 0.0 0.01 0.01 0.00 86 299.0
20260502122248 51 250 5.0 0.0 0.01 0.01 0.00 86 299.0
20260502120748 51 250 5.0 0.0 0.01 0.01 0.00 86 299.0
20260502115247 50 0 0.0 0.0 0.00 0.00 0.00 86 298.8
20260502113750 50 0 0.0 0.0 0.00 0.00 0.00 86 298.8
20260502112248 50 0 0.0 0.0 0.00 0.00 0.00 86 298.8
20260502110749 50 0 0.0 0.0 0.00 0.00 0.00 86 298.8
20260502105248 50 210 7.0 0.0 0.00 0.00 0.00 83 298.7
20260502103750 50 210 7.0 0.0 0.00 0.00 0.00 83 298.7
20260502102248 50 210 7.0 0.0 0.00 0.00 0.00 83 298.7
20260502100747 50 210 7.0 0.0 0.00 0.00 0.00 83 298.7
20260502090747 51 190 7.0 0.0 0.00 0.00 0.00 79 298.8
20260502070749 51 230 8.0 0.0 0.00 0.00 0.00 83 298.8
20260502065248 51 220 12.0 0.0 0.00 0.00 0.00 83 299.0
20260502063749 51 220 12.0 0.0 0.00 0.00 0.00 83 299.0
20260502062250 51 220 12.0 0.0 0.00 0.00 0.00 83 299.0
20260502060748 51 220 12.0 0.0 0.00 0.00 0.00 83 299.0
20260502055247 51 200 8.0 0.0 0.00 0.00 0.00 77 298.9
20260502053747 51 200 8.0 0.0 0.00 0.00 0.00 77 298.9
20260502052249 51 200 8.0 0.0 0.00 0.00 0.00 77 298.9
20260502050750 51 200 8.0 0.0 0.00 0.00 0.00 77 298.9